Elefsis, Greece

11:22 PM EEST on April 19, 2018 (GMT +0300)
Elefsis Air Base

Weather History for LGEL - December, 2012

Change the Weather History Date:

Wednesday, December 12, 2012

  Actual Average Record
Temperature  
Mean Temperature 50 °F -  
Max Temperature 59 °F 55 °F 66 °F (2011)
Min Temperature 41 °F 42 °F 28 °F (2010)
Degree Days  
Heating Degree Days 15    
Moisture  
Dew Point 34 °F    
Average Humidity 56    
Maximum Humidity 81    
Minimum Humidity 27    
Precipitation  
Precipitation 0.00 in - - ()
Sea Level Pressure  
Sea Level Pressure 29.97 in    
Wind  
Wind Speed 4 mph ()    
Max Wind Speed 10 mph    
Max Gust Speed -    
Visibility 6.2 miles    
Events Rain    
Averages and records for this station are not official NWS values.
T = Trace of Precipitation, MM = Missing Value Source: Averaged Metar Reports

Daily Weather History Graph

Daily Weather History Graph

Search for Another Location

Airport or City:

Astronomy

Dec. 12, 2012 Rise Set
Actual Time 7:32 AM EET 5:06 PM EET
Civil Twilight 7:03 AM EET 5:35 PM EET
Nautical Twilight 6:30 AM EET 6:08 PM EET
Astronomical Twilight 5:58 AM EET 6:40 PM EET
Moon 6:16 AM EET (12/12) 4:24 PM EET (12/12)
Length of Visible Light 10h 32m
Length of Day
9h 33m
Waning Crescent, 1% of the Moon is Illuminated
Dec 12
Waning Crescent
Dec 13
New
Dec 20
First Quarter
Dec 28
Full
Jan 5
Last Quarter

Hourly Weather History & Observations

Time (EET) Temp. Windchill Dew Point Humidity Pressure Visibility Wind Dir Wind Speed Gust Speed Precip Events Conditions
12:50 AM 51.8 °F - 33.8 °F 50% 29.83 in 6.2 mi WNW 10.4 mph - N/A   Partly Cloudy
1:50 AM 48.2 °F - 33.8 °F 58% 29.86 in 6.2 mi West 4.6 mph - N/A   Partly Cloudy
2:50 AM 48.2 °F - 32.0 °F 54% 29.86 in - Calm Calm - N/A   Clear
3:50 AM 50.0 °F - 30.2 °F 47% 29.86 in - NNW 6.9 mph - N/A   Clear
4:50 AM 48.2 °F - 33.8 °F 58% 29.89 in - NW 6.9 mph - N/A   Clear
5:20 AM 44.6 °F 42.2 °F 32.0 °F 61% 29.89 in - NE 4.6 mph - N/A   Clear
5:50 AM 41.0 °F - 32.0 °F 70% 29.89 in - Calm Calm - N/A   Clear
6:20 AM 41.0 °F 39.0 °F 32.0 °F 70% 29.92 in - North 3.5 mph - N/A   Clear
6:50 AM 42.8 °F - 32.0 °F 66% 29.92 in - Calm Calm - N/A   Clear
7:20 AM 41.0 °F 37.1 °F 32.0 °F 70% 29.92 in - NNW 5.8 mph - N/A   Clear
7:50 AM 41.0 °F 39.0 °F 33.8 °F 76% 29.95 in - Variable 3.5 mph - N/A   Clear
8:20 AM 44.6 °F - 35.6 °F 71% 29.95 in 6.2 mi Variable 2.3 mph - N/A   Scattered Clouds
8:50 AM 46.4 °F - 35.6 °F 66% 29.95 in 6.2 mi Variable 2.3 mph - N/A   Scattered Clouds
9:20 AM 48.2 °F - 33.8 °F 58% 29.98 in 6.2 mi Calm Calm - N/A   Mostly Cloudy
9:50 AM 50.0 °F - 33.8 °F 54% 29.98 in 6.2 mi Variable 2.3 mph - N/A   Mostly Cloudy
10:20 AM 51.8 °F - 30.2 °F 44% 29.98 in 6.2 mi Variable 2.3 mph - N/A   Scattered Clouds
10:50 AM 55.4 °F - 32.0 °F 41% 29.98 in 6.2 mi Variable 3.5 mph - N/A   Partly Cloudy
11:20 AM 55.4 °F - 33.8 °F 44% 29.98 in 6.2 mi NW 4.6 mph - N/A   Scattered Clouds
11:50 AM 57.2 °F - 33.8 °F 41% 29.98 in 6.2 mi Variable 3.5 mph - N/A   Scattered Clouds
12:20 PM 57.2 °F - 30.2 °F 36% 29.98 in 6.2 mi SSW 6.9 mph - N/A   Scattered Clouds
12:50 PM 57.2 °F - 33.8 °F 41% 29.95 in 6.2 mi Variable 3.5 mph - N/A   Scattered Clouds
1:20 PM 57.2 °F - 32.0 °F 38% 29.95 in 6.2 mi Calm Calm - N/A   Scattered Clouds
1:50 PM 57.2 °F - 30.2 °F 36% 29.95 in 6.2 mi Variable 3.5 mph - N/A   Scattered Clouds
2:20 PM 59.0 °F - 28.4 °F 31% 29.95 in 6.2 mi West 4.6 mph - N/A   Scattered Clouds
2:50 PM 57.2 °F - 24.8 °F 29% 29.95 in 6.2 mi Variable 3.5 mph - N/A   Scattered Clouds
3:20 PM 59.0 °F - 24.8 °F 27% 29.95 in 6.2 mi Calm Calm - N/A   Scattered Clouds
3:50 PM 57.2 °F - 26.6 °F 31% 29.98 in 6.2 mi Variable 3.5 mph - N/A   Scattered Clouds
4:20 PM 57.2 °F - 30.2 °F 36% 29.98 in 6.2 mi Calm Calm - N/A   Mostly Cloudy
4:50 PM 53.6 °F - 39.2 °F 58% 29.98 in 6.2 mi East 10.4 mph - N/A   Mostly Cloudy
5:20 PM 51.8 °F - 39.2 °F 62% 29.98 in 6.2 mi East 6.9 mph - N/A   Mostly Cloudy
5:50 PM 51.8 °F - 39.2 °F 62% 30.01 in 6.2 mi East 8.1 mph - N/A   Mostly Cloudy
6:20 PM 50.0 °F - 39.2 °F 66% 30.01 in 6.2 mi ENE 9.2 mph - N/A   Mostly Cloudy
6:50 PM 50.0 °F - 39.2 °F 66% 30.01 in 6.2 mi Calm Calm - N/A   Mostly Cloudy
7:20 PM 50.0 °F - 37.4 °F 62% 30.01 in 6.2 mi NE 5.8 mph - N/A   Mostly Cloudy
7:50 PM 50.0 °F - 39.2 °F 66% 30.04 in 6.2 mi NNW 6.9 mph - N/A   Mostly Cloudy
8:20 PM 50.0 °F - 37.4 °F 62% 30.04 in 6.2 mi NNW 6.9 mph - N/A   Mostly Cloudy
8:50 PM 50.0 °F - 39.2 °F 66% 30.06 in 6.2 mi NNW 5.8 mph - N/A   Mostly Cloudy
9:20 PM 48.2 °F - 39.2 °F 71% 30.06 in 6.2 mi North 5.8 mph - N/A Rain Light Rain
9:50 PM 48.2 °F - 39.2 °F 71% 30.06 in 6.2 mi Calm Calm - N/A Rain Light Rain
10:20 PM 48.2 °F - 41.0 °F 76% 30.06 in 6.2 mi Calm Calm - N/A Rain Light Rain
10:50 PM 46.4 °F - 41.0 °F 81% 30.09 in 6.2 mi Calm Calm - N/A   Mostly Cloudy
11:50 PM 46.4 °F - 41.0 °F 81% 30.09 in 6.2 mi Calm Calm - N/A Rain Light Rain